TimePDT,TemperatureF,Dew PointF,Humidity,Sea Level PressureIn,VisibilityMPH,Wind Direction,Wind SpeedMPH,Gust SpeedMPH,PrecipitationIn,Events,Conditions,WindDirDegrees,DateUTC
12:53 AM,61.0,54.0,78,29.98,10.0,Calm,Calm,-,N/A,,Clear,0,2013-05-19 07:53:00
1:53 AM,61.0,55.0,81,29.98,10.0,SE,4.6,-,N/A,,Scattered Clouds,130,2013-05-19 08:53:00
2:00 AM,60.8,55.4,82,29.98,10.0,SE,3.5,-,N/A,,Mostly Cloudy,140,2013-05-19 09:00:00
2:07 AM,62.6,55.4,77,29.98,10.0,ESE,3.5,-,N/A,,Mostly Cloudy,110,2013-05-19 09:07:00
2:37 AM,62.6,55.4,77,29.98,10.0,Calm,Calm,-,N/A,,Overcast,0,2013-05-19 09:37:00
3:53 AM,61.0,55.0,81,29.98,10.0,SE,5.8,-,N/A,,Overcast,130,2013-05-19 10:53:00
5:53 AM,61.0,54.0,78,29.98,10.0,Calm,Calm,-,N/A,,Mostly Cloudy,0,2013-05-19 12:53:00
6:53 AM,61.0,54.0,78,29.99,10.0,Calm,Calm,-,N/A,,Mostly Cloudy,0,2013-05-19 13:53:00
7:53 AM,62.1,54.0,75,29.99,10.0,Calm,Calm,-,N/A,,Overcast,0,2013-05-19 14:53:00
8:53 AM,64.9,54.0,68,29.99,10.0,Calm,Calm,-,N/A,,Overcast,0,2013-05-19 15:53:00
9:53 AM,66.9,54.0,63,29.97,10.0,WSW,5.8,-,N/A,,Mostly Cloudy,250,2013-05-19 16:53:00
10:05 AM,66.2,53.6,64,29.97,10.0,SW,3.5,-,N/A,,Scattered Clouds,230,2013-05-19 17:05:00
10:53 AM,69.1,54.0,58,29.95,10.0,South,6.9,-,N/A,,Partly Cloudy,180,2013-05-19 17:53:00
12:53 PM,71.1,54.0,55,29.94,10.0,SSW,10.4,-,N/A,,Partly Cloudy,210,2013-05-19 19:53:00
1:53 PM,72.0,54.0,53,29.93,10.0,SSW,13.8,-,N/A,,Clear,210,2013-05-19 20:53:00
2:53 PM,71.1,55.0,57,29.92,10.0,South,11.5,-,N/A,,Clear,190,2013-05-19 21:53:00
3:53 PM,70.0,55.9,61,29.91,10.0,SSW,10.4,-,N/A,,Clear,210,2013-05-19 22:53:00
4:53 PM,70.0,55.9,61,29.90,10.0,SSW,12.7,-,N/A,,Clear,200,2013-05-19 23:53:00
5:53 PM,68.0,55.9,65,29.89,10.0,SSW,10.4,-,N/A,,Clear,200,2013-05-20 00:53:00
6:53 PM,66.9,55.9,68,29.89,10.0,SW,8.1,-,N/A,,Clear,230,2013-05-20 01:53:00
7:53 PM,64.9,55.9,73,29.90,10.0,SW,6.9,-,N/A,,Clear,230,2013-05-20 02:53:00
9:53 PM,64.0,55.0,73,29.91,10.0,SSW,6.9,-,N/A,,Clear,200,2013-05-20 04:53:00
10:53 PM,64.0,54.0,70,29.92,10.0,SSW,4.6,-,N/A,,Clear,210,2013-05-20 05:53:00
11:53 PM,63.0,55.0,75,29.92,10.0,SSW,3.5,-,N/A,,Clear,200,2013-05-20 06:53:00